Time,TemperatureF,DewpointF,PressureIn,WindDirection,WindDirectionDegrees,WindSpeedMPH,WindSpeedGustMPH,Humidity,HourlyPrecipIn,Conditions,Clouds,dailyrainin,SoftwareType,DateUTC
2013-02-27 00:01:00,18.0,8.0,-100.00,West,268,3.0,4.0,64,-99.99,,,-99.99,,2013-02-27 08:01:00,
2013-02-27 00:11:00,19.0,8.0,-100.00,South,188,1.0,3.0,62,-99.99,,,-99.99,,2013-02-27 08:11:00,
2013-02-27 00:21:00,22.0,8.0,-100.00,ENE,72,2.0,4.0,55,-99.99,,,-99.99,,2013-02-27 08:21:00,
2013-02-27 00:31:00,22.0,8.0,-100.00,ENE,72,2.0,4.0,55,-99.99,,,-99.99,,2013-02-27 08:31:00,
2013-02-27 00:41:00,23.0,9.0,-100.00,ENE,64,4.0,5.0,54,-99.99,,,-99.99,,2013-02-27 08:41:00,
2013-02-27 00:52:00,20.0,8.0,-100.00,East,83,5.0,8.0,58,-99.99,,,-99.99,,2013-02-27 08:52:00,
2013-02-27 01:01:00,20.0,8.0,-100.00,East,83,5.0,8.0,58,-99.99,,,-99.99,,2013-02-27 09:01:00,
2013-02-27 01:11:00,19.0,8.0,-100.00,East,90,6.0,8.0,61,-99.99,,,-99.99,,2013-02-27 09:11:00,
2013-02-27 01:21:00,18.0,8.0,-100.00,ESE,107,6.0,8.0,65,-99.99,,,-99.99,,2013-02-27 09:21:00,
2013-02-27 01:32:00,18.0,8.0,-100.00,ESE,107,6.0,8.0,65,-99.99,,,-99.99,,2013-02-27 09:32:00,
2013-02-27 01:41:00,15.0,7.0,-100.00,SSE,152,2.0,6.0,71,-99.99,,,-99.99,,2013-02-27 09:41:00,
2013-02-27 01:52:00,18.0,9.0,-100.00,SE,136,1.0,3.0,67,-99.99,,,-99.99,,2013-02-27 09:52:00,
2013-02-27 02:01:00,18.0,9.0,-100.00,SE,136,1.0,3.0,67,-99.99,,,-99.99,,2013-02-27 10:01:00,
2013-02-27 02:12:00,16.0,9.0,-100.00,SSE,150,1.0,3.0,73,-99.99,,,-99.99,,2013-02-27 10:12:00,
2013-02-27 02:21:00,18.0,9.0,-100.00,East,82,3.0,4.0,66,-99.99,,,-99.99,,2013-02-27 10:21:00,
2013-02-27 02:32:00,18.0,9.0,-100.00,East,82,3.0,4.0,66,-99.99,,,-99.99,,2013-02-27 10:32:00,
2013-02-27 02:42:00,17.0,9.0,-100.00,ENE,69,1.0,3.0,69,-99.99,,,-99.99,,2013-02-27 10:42:00,
2013-02-27 02:52:00,17.0,9.0,-100.00,North,6,0.0,1.0,70,-99.99,,,-99.99,,2013-02-27 10:52:00,
2013-02-27 03:01:00,17.0,9.0,-100.00,North,6,0.0,1.0,70,-99.99,,,-99.99,,2013-02-27 11:01:00,
2013-02-27 03:22:00,17.0,8.0,-100.00,ENE,61,1.0,2.0,68,-99.99,,,-99.99,,2013-02-27 11:22:00,
2013-02-27 03:32:00,14.0,8.0,-100.00,West,260,1.0,3.0,77,-99.99,,,-99.99,,2013-02-27 11:32:00,
2013-02-27 03:41:00,13.0,9.0,-100.00,WSW,248,0.0,2.0,83,-99.99,,,-99.99,,2013-02-27 11:41:00,
2013-02-27 03:52:00,13.0,9.0,-100.00,WSW,248,0.0,2.0,83,-99.99,,,-99.99,,2013-02-27 11:52:00,
2013-02-27 04:02:00,14.0,9.0,-100.00,NNW,329,1.0,3.0,81,-99.99,,,-99.99,,2013-02-27 12:02:00,
2013-02-27 04:12:00,14.0,9.0,-100.00,NNW,329,1.0,3.0,81,-99.99,,,-99.99,,2013-02-27 12:12:00,
2013-02-27 04:22:00,15.0,9.0,-100.00,NE,51,0.0,2.0,78,-99.99,,,-99.99,,2013-02-27 12:22:00,
2013-02-27 04:32:00,15.0,9.0,-100.00,NE,51,0.0,2.0,78,-99.99,,,-99.99,,2013-02-27 12:32:00,
2013-02-27 04:52:00,15.0,7.0,-100.00,East,99,3.0,5.0,69,-99.99,,,-99.99,,2013-02-27 12:52:00,
2013-02-27 05:02:00,16.0,7.0,-100.00,East,95,3.0,4.0,67,-99.99,,,-99.99,,2013-02-27 13:02:00,
2013-02-27 05:11:00,19.0,9.0,-100.00,ESE,106,3.0,4.0,65,-99.99,,,-99.99,,2013-02-27 13:11:00,
2013-02-27 05:22:00,10.0,4.0,-100.00,NNW,346,1.0,3.0,77,-99.99,,,-99.99,,2013-02-27 13:22:00,
2013-02-27 05:32:00,13.0,8.0,-100.00,WSW,241,0.0,1.0,80,-99.99,,,-99.99,,2013-02-27 13:32:00,
2013-02-27 05:42:00,13.0,8.0,-100.00,WSW,241,0.0,1.0,80,-99.99,,,-99.99,,2013-02-27 13:42:00,
2013-02-27 05:52:00,14.0,7.0,-100.00,ENE,72,2.0,5.0,74,-99.99,,,-99.99,,2013-02-27 13:52:00,
2013-02-27 06:02:00,14.0,6.0,-100.00,East,80,3.0,6.0,71,-99.99,,,-99.99,,2013-02-27 14:02:00,
2013-02-27 06:11:00,14.0,6.0,-100.00,ESE,106,3.0,5.0,69,-99.99,,,-99.99,,2013-02-27 14:11:00,
2013-02-27 06:21:00,14.0,6.0,-100.00,ESE,106,2.0,4.0,69,-99.99,,,-99.99,,2013-02-27 14:21:00,
2013-02-27 06:32:00,13.0,5.0,-100.00,East,79,1.0,3.0,70,-99.99,,,-99.99,,2013-02-27 14:32:00,
2013-02-27 06:42:00,13.0,5.0,-100.00,East,79,1.0,3.0,70,-99.99,,,-99.99,,2013-02-27 14:42:00,
2013-02-27 06:52:00,14.0,7.0,-100.00,North,3,0.0,1.0,73,-99.99,,,-99.99,,2013-02-27 14:52:00,
2013-02-27 07:02:00,13.0,6.0,-100.00,East,90,3.0,5.0,72,-99.99,,,-99.99,,2013-02-27 15:02:00,
2013-02-27 07:12:00,13.0,6.0,-100.00,East,90,3.0,5.0,72,-99.99,,,-99.99,,2013-02-27 15:12:00,
2013-02-27 07:22:00,12.0,5.0,-100.00,ESE,103,0.0,2.0,73,-99.99,,,-99.99,,2013-02-27 15:22:00,
2013-02-27 07:32:00,12.0,5.0,-100.00,ESE,103,0.0,2.0,73,-99.99,,,-99.99,,2013-02-27 15:32:00,
2013-02-27 07:42:00,15.0,7.0,-100.00,East,99,1.0,3.0,70,-99.99,,,-99.99,,2013-02-27 15:42:00,
2013-02-27 07:52:00,15.0,7.0,-100.00,East,99,1.0,3.0,70,-99.99,,,-99.99,,2013-02-27 15:52:00,
2013-02-27 08:01:00,17.0,8.0,-100.00,East,97,2.0,4.0,68,-99.99,,,-99.99,,2013-02-27 16:01:00,
2013-02-27 08:11:00,19.0,9.0,-100.00,NE,51,0.0,3.0,65,-99.99,,,-99.99,,2013-02-27 16:11:00,
2013-02-27 08:21:00,19.0,9.0,-100.00,NE,51,0.0,3.0,65,-99.99,,,-99.99,,2013-02-27 16:21:00,
2013-02-27 08:32:00,21.0,11.0,-100.00,NNE,27,2.0,4.0,65,-99.99,,,-99.99,,2013-02-27 16:32:00,
2013-02-27 08:42:00,23.0,12.0,-100.00,NNE,16,1.0,3.0,63,-99.99,,,-99.99,,2013-02-27 16:42:00,
2013-02-27 08:52:00,23.0,12.0,-100.00,NNE,16,1.0,3.0,63,-99.99,,,-99.99,,2013-02-27 16:52:00,
2013-02-27 09:01:00,27.0,11.0,-100.00,ENE,72,1.0,4.0,51,-99.99,,,-99.99,,2013-02-27 17:01:00,
2013-02-27 09:11:00,27.0,11.0,-100.00,ENE,72,1.0,4.0,51,-99.99,,,-99.99,,2013-02-27 17:11:00,
2013-02-27 09:21:00,30.0,13.0,-100.00,ESE,103,1.0,4.0,49,-99.99,,,-99.99,,2013-02-27 17:21:00,
2013-02-27 09:32:00,32.0,14.0,-100.00,SE,124,1.0,3.0,47,-99.99,,,-99.99,,2013-02-27 17:32:00,
2013-02-27 09:41:00,31.0,13.0,-100.00,SE,140,1.0,4.0,46,-99.99,,,-99.99,,2013-02-27 17:41:00,
2013-02-27 09:52:00,33.0,11.0,-100.00,South,189,2.0,5.0,40,-99.99,,,-99.99,,2013-02-27 17:52:00,
2013-02-27 10:01:00,33.0,11.0,-100.00,South,189,2.0,5.0,40,-99.99,,,-99.99,,2013-02-27 18:01:00,
2013-02-27 10:11:00,34.0,11.0,-100.00,SSE,150,2.0,7.0,38,-99.99,,,-99.99,,2013-02-27 18:11:00,
2013-02-27 10:22:00,37.0,9.0,-100.00,NNE,25,1.0,3.0,31,-99.99,,,-99.99,,2013-02-27 18:22:00,
2013-02-27 10:32:00,37.0,9.0,-100.00,NNE,25,1.0,3.0,31,-99.99,,,-99.99,,2013-02-27 18:32:00,
2013-02-27 10:42:00,39.0,9.0,-100.00,SSW,193,1.0,5.0,29,-99.99,,,-99.99,,2013-02-27 18:42:00,
2013-02-27 10:52:00,39.0,9.0,-100.00,SSW,193,1.0,5.0,29,-99.99,,,-99.99,,2013-02-27 18:52:00,
2013-02-27 11:01:00,39.0,9.0,-100.00,SSW,193,1.0,5.0,29,-99.99,,,-99.99,,2013-02-27 19:01:00,
2013-02-27 11:11:00,41.0,10.0,-100.00,SSE,147,2.0,5.0,28,-99.99,,,-99.99,,2013-02-27 19:11:00,
2013-02-27 11:21:00,41.0,10.0,-100.00,SSE,147,2.0,5.0,28,-99.99,,,-99.99,,2013-02-27 19:21:00,
2013-02-27 11:32:00,42.0,10.0,-100.00,WNW,294,2.0,6.0,26,-99.99,,,-99.99,,2013-02-27 19:32:00,
2013-02-27 11:42:00,43.0,10.0,-100.00,North,4,2.0,5.0,25,-99.99,,,-99.99,,2013-02-27 19:42:00,
2013-02-27 11:51:00,43.0,10.0,-100.00,North,4,2.0,5.0,25,-99.99,,,-99.99,,2013-02-27 19:51:00,
2013-02-27 12:01:00,45.0,8.0,-100.00,North,359,2.0,5.0,22,-99.99,,,-99.99,,2013-02-27 20:01:00,
2013-02-27 12:11:00,45.0,8.0,-100.00,North,359,2.0,5.0,22,-99.99,,,-99.99,,2013-02-27 20:11:00,
2013-02-27 12:21:00,45.0,6.0,-100.00,NNE,14,3.0,6.0,20,-99.99,,,-99.99,,2013-02-27 20:21:00,
2013-02-27 12:32:00,47.0,8.0,-100.00,NW,311,3.0,7.0,20,-99.99,,,-99.99,,2013-02-27 20:32:00,
2013-02-27 12:42:00,49.0,7.0,-100.00,NNW,344,3.0,6.0,18,-99.99,,,-99.99,,2013-02-27 20:42:00,
2013-02-27 12:52:00,49.0,5.0,-100.00,NW,323,3.0,7.0,16,-99.99,,,-99.99,,2013-02-27 20:52:00,
2013-02-27 13:01:00,49.0,5.0,-100.00,NW,319,4.0,8.0,16,-99.99,,,-99.99,,2013-02-27 21:01:00,
2013-02-27 13:11:00,51.0,5.0,-100.00,North,0,3.0,7.0,15,-99.99,,,-99.99,,2013-02-27 21:11:00,
2013-02-27 13:21:00,52.0,6.0,-100.00,NW,312,3.0,7.0,15,-99.99,,,-99.99,,2013-02-27 21:21:00,
2013-02-27 13:31:00,52.0,6.0,-100.00,NW,312,3.0,7.0,15,-99.99,,,-99.99,,2013-02-27 21:31:00,
2013-02-27 13:42:00,53.0,5.0,-100.00,West,263,2.0,8.0,14,-99.99,,,-99.99,,2013-02-27 21:42:00,
2013-02-27 13:52:00,55.0,3.0,-100.00,NW,312,1.0,4.0,12,-99.99,,,-99.99,,2013-02-27 21:52:00,
2013-02-27 14:01:00,55.0,3.0,-100.00,NNW,328,2.0,5.0,12,-99.99,,,-99.99,,2013-02-27 22:01:00,
2013-02-27 14:11:00,55.0,5.0,-100.00,NW,323,3.0,8.0,13,-99.99,,,-99.99,,2013-02-27 22:11:00,
2013-02-27 14:21:00,55.0,5.0,-100.00,NW,308,3.0,8.0,13,-99.99,,,-99.99,,2013-02-27 22:21:00,
2013-02-27 14:31:00,55.0,5.0,-100.00,NW,308,3.0,8.0,13,-99.99,,,-99.99,,2013-02-27 22:31:00,
2013-02-27 14:41:00,56.0,6.0,-100.00,West,264,7.0,20.0,13,-99.99,,,-99.99,,2013-02-27 22:41:00,
2013-02-27 14:52:00,54.0,6.0,-100.00,WSW,246,9.0,15.0,14,-99.99,,,-99.99,,2013-02-27 22:52:00,
2013-02-27 15:01:00,54.0,6.0,-100.00,WSW,256,10.0,17.0,14,-99.99,,,-99.99,,2013-02-27 23:01:00,
2013-02-27 15:11:00,54.0,6.0,-100.00,WSW,256,10.0,17.0,14,-99.99,,,-99.99,,2013-02-27 23:11:00,
2013-02-27 15:21:00,56.0,6.0,-100.00,WSW,250,9.0,19.0,13,-99.99,,,-99.99,,2013-02-27 23:21:00,
2013-02-27 15:32:00,56.0,6.0,-100.00,WSW,250,9.0,19.0,13,-99.99,,,-99.99,,2013-02-27 23:32:00,
2013-02-27 15:42:00,56.0,6.0,-100.00,WSW,237,15.0,26.0,13,-99.99,,,-99.99,,2013-02-27 23:42:00,
2013-02-27 15:53:00,56.0,7.0,-100.00,WSW,239,12.0,20.0,14,-99.99,,,-99.99,,2013-02-27 23:53:00,
2013-02-27 16:01:00,56.0,6.0,-100.00,SW,234,12.0,19.0,13,-99.99,,,-99.99,,2013-02-28 00:01:00,
2013-02-27 16:11:00,55.0,7.0,-100.00,WSW,247,13.0,21.0,14,-99.99,,,-99.99,,2013-02-28 00:11:00,
2013-02-27 16:21:00,56.0,6.0,-100.00,West,260,13.0,18.0,13,-99.99,,,-99.99,,2013-02-28 00:21:00,
2013-02-27 16:32:00,55.0,5.0,-100.00,WSW,257,14.0,19.0,13,-99.99,,,-99.99,,2013-02-28 00:32:00,
2013-02-27 16:42:00,55.0,5.0,-100.00,WSW,258,14.0,19.0,13,-99.99,,,-99.99,,2013-02-28 00:42:00,
2013-02-27 16:52:00,55.0,5.0,-100.00,WSW,258,11.0,17.0,13,-99.99,,,-99.99,,2013-02-28 00:52:00,
2013-02-27 17:01:00,55.0,7.0,-100.00,West,263,10.0,15.0,14,-99.99,,,-99.99,,2013-02-28 01:01:00,
2013-02-27 17:11:00,55.0,7.0,-100.00,West,263,10.0,15.0,14,-99.99,,,-99.99,,2013-02-28 01:11:00,
2013-02-27 17:21:00,54.0,6.0,-100.00,WSW,250,9.0,12.0,14,-99.99,,,-99.99,,2013-02-28 01:21:00,
2013-02-27 17:31:00,54.0,6.0,-100.00,WSW,250,9.0,12.0,14,-99.99,,,-99.99,,2013-02-28 01:31:00,
2013-02-27 17:41:00,52.0,9.0,-100.00,WSW,248,7.0,9.0,17,-99.99,,,-99.99,,2013-02-28 01:41:00,
2013-02-27 17:50:00,43.0,10.0,-100.00,WSW,240,5.0,7.0,26,-99.99,,,-99.99,,2013-02-28 01:50:00,
2013-02-27 17:51:00,47.0,9.0,-100.00,WSW,246,8.0,9.0,21,-99.99,,,-99.99,,2013-02-28 01:51:00,
2013-02-27 18:01:00,47.0,9.0,-100.00,WSW,246,8.0,9.0,21,-99.99,,,-99.99,,2013-02-28 02:01:00,
2013-02-27 18:11:00,45.0,8.0,-100.00,WSW,248,6.0,8.0,22,-99.99,,,-99.99,,2013-02-28 02:11:00,
2013-02-27 18:22:00,45.0,8.0,-100.00,WSW,248,6.0,8.0,22,-99.99,,,-99.99,,2013-02-28 02:22:00,
2013-02-27 18:31:00,43.0,10.0,-100.00,WSW,240,5.0,7.0,26,-99.99,,,-99.99,,2013-02-28 02:31:00,
2013-02-27 18:41:00,43.0,10.0,-100.00,WSW,240,5.0,7.0,26,-99.99,,,-99.99,,2013-02-28 02:41:00,
2013-02-27 19:01:00,44.0,11.0,-100.00,WSW,256,6.0,11.0,26,-99.99,,,-99.99,,2013-02-28 03:01:00,
2013-02-27 19:11:00,44.0,11.0,-100.00,WSW,256,6.0,11.0,26,-99.99,,,-99.99,,2013-02-28 03:11:00,
2013-02-27 19:21:00,48.0,15.0,-100.00,WSW,254,13.0,17.0,26,-99.99,,,-99.99,,2013-02-28 03:21:00,
2013-02-27 19:31:00,48.0,15.0,-100.00,WSW,254,13.0,17.0,26,-99.99,,,-99.99,,2013-02-28 03:31:00,
2013-02-27 19:41:00,45.0,16.0,-100.00,WSW,256,9.0,14.0,31,-99.99,,,-99.99,,2013-02-28 03:41:00,
2013-02-27 19:52:00,45.0,16.0,-100.00,WSW,256,9.0,14.0,31,-99.99,,,-99.99,,2013-02-28 03:52:00,
2013-02-27 20:01:00,41.0,14.0,-100.00,SSW,192,7.0,12.0,33,-99.99,,,-99.99,,2013-02-28 04:01:00,
2013-02-27 20:11:00,43.0,14.0,-100.00,ENE,76,2.0,5.0,30,-99.99,,,-99.99,,2013-02-28 04:11:00,
2013-02-27 20:21:00,43.0,14.0,-100.00,ENE,76,2.0,5.0,30,-99.99,,,-99.99,,2013-02-28 04:21:00,
2013-02-27 20:31:00,43.0,14.0,-100.00,ENE,76,2.0,5.0,30,-99.99,,,-99.99,,2013-02-28 04:31:00,
2013-02-27 21:11:00,32.0,12.0,-100.00,ESE,117,5.0,9.0,43,-99.99,,,-99.99,,2013-02-28 05:11:00,
2013-02-27 21:22:00,32.0,12.0,-100.00,ESE,117,5.0,9.0,43,-99.99,,,-99.99,,2013-02-28 05:22:00,
2013-02-27 21:31:00,33.0,12.0,-100.00,ESE,121,8.0,10.0,42,-99.99,,,-99.99,,2013-02-28 05:31:00,
2013-02-27 21:42:00,33.0,11.0,-100.00,SE,128,6.0,8.0,40,-99.99,,,-99.99,,2013-02-28 05:42:00,
2013-02-27 21:52:00,33.0,11.0,-100.00,SE,128,6.0,8.0,40,-99.99,,,-99.99,,2013-02-28 05:52:00,
2013-02-27 22:01:00,31.0,11.0,-100.00,ESE,102,6.0,9.0,43,-99.99,,,-99.99,,2013-02-28 06:01:00,
2013-02-27 22:22:00,34.0,12.0,-100.00,SSE,150,4.0,6.0,40,-99.99,,,-99.99,,2013-02-28 06:22:00,
2013-02-27 22:32:00,34.0,12.0,-100.00,SSE,150,4.0,6.0,40,-99.99,,,-99.99,,2013-02-28 06:32:00,
2013-02-27 22:42:00,33.0,12.0,-100.00,East,95,6.0,8.0,41,-99.99,,,-99.99,,2013-02-28 06:42:00,
2013-02-27 22:52:00,36.0,12.0,-100.00,ENE,73,4.0,5.0,36,-99.99,,,-99.99,,2013-02-28 06:52:00,
2013-02-27 23:01:00,36.0,12.0,-100.00,ENE,78,4.0,7.0,37,-99.99,,,-99.99,,2013-02-28 07:01:00,
2013-02-27 23:11:00,35.0,13.0,-100.00,ENE,69,5.0,7.0,40,-99.99,,,-99.99,,2013-02-28 07:11:00,
2013-02-27 23:21:00,35.0,14.0,-100.00,East,86,7.0,10.0,41,-99.99,,,-99.99,,2013-02-28 07:21:00,
2013-02-27 23:31:00,35.0,14.0,-100.00,East,86,7.0,10.0,41,-99.99,,,-99.99,,2013-02-28 07:31:00,
2013-02-27 23:41:00,35.0,14.0,-100.00,ENE,61,6.0,9.0,41,-99.99,,,-99.99,,2013-02-28 07:41:00,
2013-02-27 23:52:00,31.0,14.0,-100.00,WNW,282,1.0,3.0,48,-99.99,,,-99.99,,2013-02-28 07:52:00,